Flag for U.S.A. Weather past 2 weeks in Laredo, Texas, U.S.A.

Now
82 °F

Clear.


Feels Like: 88 °F
Forecast: 76 / 96 °F
Wind: 10 mph from Southeast

Location: Laredo International Airport

Current Time: Sep 3, 2015 at 2:05:07 AM

Latest Report: Sep 3, 2015 at 12:56 AM


Visibility: 10 mi

Pressure: 29.92 "Hg

Humidity: 77%

Dew point: 74 °F

Location of LaredoLocation

Historic Weather in Laredo — Graph

°F

Laredo temperature yesterday

Maximum temperature yesterday: 99 °F (at 3:56 PM)
Minimum temperature yesterday: 76 °F (at 6:56 AM)
Average temperature yesterday: 86 °F

Past Weeks' High & Low Weather Summary

 TemperatureHumidityPressure
High105 °F (Aug 19, 4:56 PM)97% (Sep 1, 4:56 AM)30.09 "Hg (Sep 1, 4:56 AM)
Low71 °F (Aug 28, 6:56 AM)19% (Aug 29, 5:56 PM)29.64 "Hg (Aug 19, 5:56 PM)
Average87 °F58%29.92 "Hg
* Reported Aug 19 12:56 AM — Sep 3 12:56 AM, Laredo, Weather by CustomWeather, © 2015

Note: Actual official high and low records may vary slightly from our data, if they occured in-between our weather recording intervals... More about our weather records

Advertising

Laredo weather history for previous 24 hours

 ConditionsComfort  
Time TempWeatherWind HumidityBarometerVisibility
12:56 AM
Thu, Sep 3
82 °FClear.10 mph77%29.92 "Hg10 mi
11:56 PM
Wed, Sep 2
83 °FClear.13 mph72%29.91 "Hg10 mi
10:56 PM84 °FClear.17 mph70%29.90 "Hg10 mi
9:56 PM87 °FPassing clouds.16 mph61%29.88 "Hg10 mi
8:56 PM89 °FSunny.14 mph57%29.85 "Hg10 mi
7:56 PM94 °FSunny.9 mph37%29.83 "Hg10 mi
6:56 PM97 °FPassing clouds.10 mph33%29.82 "Hg10 mi
5:56 PM99 °FScattered clouds.8 mph31%29.82 "Hg10 mi
4:56 PM99 °FSunny.9 mph33%29.84 "Hg10 mi
3:56 PM99 °FSunny.7 mph34%29.87 "Hg10 mi
2:56 PM95 °FSunny.3 mph41%29.90 "Hg10 mi
1:56 PM93 °FPartly sunny.6 mph46%29.93 "Hg10 mi
12:56 PM91 °FSunny.6 mph52%29.97 "Hg10 mi
11:56 AM89 °FScattered clouds.3 mph59%29.99 "Hg10 mi
10:56 AM87 °FScattered clouds.5 mph65%30.00 "Hg10 mi
9:56 AM84 °FMore clouds than sun.8 mph72%30.00 "Hg10 mi
9:03 AM79 °FLow clouds.7 mph84%30.03 "Hg10 mi
8:56 AM78 °FBroken clouds.8 mph88%29.99 "Hg10 mi
7:56 AM76 °FClear.7 mph94%29.98 "Hg10 mi
6:56 AM76 °FPassing clouds.7 mph94%29.96 "Hg10 mi
5:56 AM77 °FLow clouds.6 mph90%29.96 "Hg10 mi
4:56 AM77 °FPassing clouds.7 mph90%29.96 "Hg10 mi
3:56 AM77 °FPassing clouds.6 mph90%29.96 "Hg10 mi
2:56 AM78 °FPassing clouds.10 mph88%29.97 "Hg10 mi
Weather by CustomWeather, © 2015

See weather overviewHow to use our weather pages